| time (UTC) | temp F | wind direction | speed MPH | gust MPH | rain 1hr in | rain 24hr in | rain mn in | humidity % | barometer mb |
| 20260901131644 | 80 | 241 | 3.0 | 8.0 | 0.00 | 0.00 | 0.00 | 78 | 1008.7 |
| 20260901130025 | 80 | 236 | 2.0 | 6.0 | 0.00 | 0.00 | 0.00 | 79 | 1008.8 |
| 20260901124556 | 79 | 219 | 2.0 | 7.0 | 0.00 | 0.00 | 0.00 | 80 | 1008.9 |
| 20260901123142 | 78 | 259 | 4.0 | 8.0 | 0.00 | 0.00 | 0.00 | 80 | 1008.9 |
| 20260901121655 | 77 | 263 | 3.0 | 6.0 | 0.00 | 0.00 | 0.00 | 82 | 1008.9 |
| 20260901120057 | 77 | 238 | 1.0 | 7.0 | 0.00 | 0.00 | 0.00 | 82 | 1009.0 |
| 20260901114540 | 77 | 238 | 3.0 | 6.0 | 0.00 | 0.00 | 0.00 | 82 | 1008.8 |
| 20260901113119 | 77 | 215 | 2.0 | 8.0 | 0.00 | 0.00 | 0.00 | 82 | 1008.8 |
| 20260901111531 | 77 | 196 | 2.0 | 7.0 | 0.00 | 0.00 | 0.00 | 81 | 1008.6 |
| 20260901110115 | 77 | 355 | 3.0 | 8.0 | 0.00 | 0.00 | 0.00 | 82 | 1008.5 |
| 20260901104638 | 77 | 190 | 2.0 | 8.0 | 0.00 | 0.00 | 0.00 | 82 | 1008.4 |
| 20260901103015 | 77 | 207 | 3.0 | 6.0 | 0.00 | 0.00 | 0.00 | 82 | 1008.3 |
| 20260901101541 | 76 | 175 | 2.0 | 5.0 | 0.00 | 0.00 | 0.00 | 83 | 1008.1 |
| 20260901100107 | 76 | 166 | 2.0 | 6.0 | 0.00 | 0.00 | 0.00 | 83 | 1008.2 |
| 20260901094642 | 76 | 169 | 1.0 | 5.0 | 0.00 | 0.00 | 0.00 | 83 | 1008.2 |
| 20260901093019 | 76 | 193 | 1.0 | 4.0 | 0.00 | 0.00 | 0.00 | 84 | 1008.2 |
| 20260901091543 | 76 | 194 | 2.0 | 5.0 | 0.00 | 0.00 | 0.00 | 84 | 1008.1 |
| 20260901090118 | 76 | 192 | 1.0 | 6.0 | 0.00 | 0.00 | 0.00 | 84 | 1008.2 |
| 20260901084519 | 76 | 165 | 2.0 | 5.0 | 0.00 | 0.00 | 0.00 | 83 | 1008.2 |
| 20260901083101 | 76 | 194 | 2.0 | 6.0 | 0.00 | 0.00 | 0.00 | 83 | 1008.1 |
| 20260901081521 | 76 | 240 | 2.0 | 4.0 | 0.00 | 0.00 | 0.00 | 83 | 1008.2 |
| 20260901080104 | 76 | 196 | 1.0 | 6.0 | 0.00 | 0.00 | 0.00 | 83 | 1008.3 |
| 20260901074638 | 75 | 205 | 2.0 | 4.0 | 0.00 | 0.00 | 0.00 | 84 | 1008.3 |
| 20260901073011 | 76 | 198 | 1.0 | 4.0 | 0.00 | 0.00 | 0.00 | 83 | 1008.4 |
| 20260901071606 | 75 | 182 | 2.0 | 6.0 | 0.00 | 0.00 | 0.00 | 84 | 1008.3 |
| 20260901070023 | 74 | 180 | 1.0 | 4.0 | 0.00 | 0.00 | 0.00 | 87 | 1008.2 |
| 20260901064610 | 73 | 161 | 1.0 | 3.0 | 0.00 | 0.00 | 0.00 | 88 | 1008.3 |
| 20260901063143 | 73 | 155 | 1.0 | 4.0 | 0.00 | 0.00 | 0.00 | 88 | 1008.4 |
| 20260901061503 | 72 | 157 | 1.0 | 2.0 | 0.00 | 0.00 | 0.00 | 90 | 1008.4 |
| 20260901060022 | 71 | 140 | 0.0 | 2.0 | 0.00 | 0.00 | 0.00 | 91 | 1008.4 |
| 20260901054614 | 72 | 140 | 0.0 | 2.0 | 0.00 | 0.00 | 0.00 | 91 | 1008.6 |
| 20260901053150 | 72 | 139 | 1.0 | 2.0 | 0.00 | 0.00 | 0.00 | 90 | 1008.8 |
| 20260901051610 | 72 | 140 | 0.0 | 2.0 | 0.00 | 0.00 | 0.00 | 90 | 1008.9 |
| 20260901050137 | 72 | 160 | 0.0 | 2.0 | 0.00 | 0.00 | 0.00 | 90 | 1008.8 |
| 20260901044532 | 72 | 165 | 0.0 | 2.0 | 0.00 | 0.00 | 0.00 | 90 | 1008.8 |
| 20260901043053 | 72 | 144 | 1.0 | 2.0 | 0.00 | 0.00 | 0.00 | 91 | 1008.7 |
| 20260901041501 | 72 | 134 | 0.0 | 2.0 | 0.00 | 0.00 | 0.00 | 90 | 1008.9 |
| 20260901034638 | 72 | 150 | 1.0 | 2.0 | 0.00 | 0.00 | 0.00 | 91 | 1008.7 |
| 20260901033141 | 72 | 142 | 1.0 | 3.0 | 0.00 | 0.00 | 0.00 | 90 | 1008.9 |
| 20260901031651 | 73 | 165 | 0.0 | 2.0 | 0.00 | 0.00 | 0.00 | 90 | 1009.0 |
| 20260901030152 | 72 | 207 | 0.0 | 2.0 | 0.00 | 0.00 | 0.00 | 91 | 1008.8 |
| 20260901024656 | 72 | 207 | 0.0 | 2.0 | 0.00 | 0.01 | 0.00 | 91 | 1008.6 |
| 20260901023027 | 73 | 219 | 0.0 | 2.0 | 0.00 | 0.01 | 0.00 | 89 | 1008.7 |
| 20260901021551 | 73 | 186 | 0.0 | 3.0 | 0.00 | 0.01 | 0.00 | 89 | 1008.5 |
| 20260901020110 | 73 | 167 | 1.0 | 2.0 | 0.00 | 0.01 | 0.00 | 90 | 1008.7 |
| 20260901014524 | 73 | 41 | 0.0 | 2.0 | 0.00 | 0.01 | 0.00 | 89 | 1009.0 |
| 20260901013106 | 74 | 41 | 0.0 | 2.0 | 0.00 | 0.01 | 0.00 | 88 | 1009.0 |
| 20260901011643 | 75 | 19 | 0.0 | 2.0 | 0.00 | 0.01 | 0.00 | 87 | 1008.7 |
| 20260901010153 | 75 | 162 | 0.0 | 5.0 | 0.00 | 0.01 | 0.00 | 87 | 1008.2 |
| 20260901004523 | 75 | 140 | 2.0 | 5.0 | 0.00 | 0.01 | 0.00 | 86 | 1007.9 |
| 20260901003108 | 75 | 165 | 1.0 | 5.0 | 0.00 | 0.01 | 0.00 | 85 | 1008.2 |
| 20260901001532 | 77 | 148 | 2.0 | 4.0 | 0.00 | 0.01 | 0.00 | 81 | 1009.1 |
| 20260901000109 | 78 | 213 | 0.0 | 3.0 | 0.00 | 0.01 | 0.00 | 76 | 1009.6 |
| 20260831234637 | 79 | 231 | 0.0 | 7.0 | 0.00 | 0.01 | 0.00 | 73 | 1009.7 |
| 20260831233037 | 80 | 259 | 1.0 | 5.0 | 0.00 | 0.01 | 0.00 | 76 | 1009.9 |
| 20260831231612 | 81 | 246 | 1.0 | 3.0 | 0.00 | 0.01 | 0.00 | 74 | 1009.9 |
| 20260831230026 | 81 | 229 | 1.0 | 6.0 | 0.00 | 0.01 | 0.00 | 73 | 1010.0 |
| 20260831224550 | 82 | 190 | 2.0 | 6.0 | 0.00 | 0.01 | 0.00 | 74 | 1010.1 |
| 20260831223139 | 82 | 225 | 1.0 | 4.0 | 0.00 | 0.01 | 0.00 | 73 | 1010.0 |
| 20260831221637 | 83 | 238 | 0.0 | 2.0 | 0.00 | 0.01 | 0.00 | 75 | 1009.9 |
| 20260831220011 | 83 | 251 | 0.0 | 2.0 | 0.00 | 0.01 | 0.00 | 74 | 1009.8 |
| 20260831214620 | 83 | 217 | 1.0 | 3.0 | 0.00 | 0.01 | 0.00 | 72 | 1009.5 |
| 20260831213038 | 83 | 161 | 0.0 | 2.0 | 0.00 | 0.01 | 0.00 | 73 | 1009.4 |
| 20260831211615 | 83 | 213 | 2.0 | 4.0 | 0.00 | 0.01 | 0.00 | 72 | 1009.6 |
| 20260831210144 | 84 | 150 | 1.0 | 3.0 | 0.00 | 0.01 | 0.00 | 71 | 1009.7 |
| 20260831204537 | 84 | 225 | 0.0 | 2.0 | 0.00 | 0.01 | 0.00 | 71 | 1009.9 |
| 20260831203102 | 83 | 207 | 1.0 | 3.0 | 0.00 | 0.01 | 0.00 | 71 | 1009.7 |
| 20260831201642 | 83 | 271 | 0.0 | 3.0 | 0.00 | 0.01 | 0.00 | 70 | 1009.8 |
| 20260831200108 | 82 | 225 | 0.0 | 2.0 | 0.00 | 0.01 | 0.00 | 73 | 1009.9 |
| 20260831194510 | 82 | 238 | 1.0 | 3.0 | 0.00 | 0.01 | 0.00 | 72 | 1009.7 |
| 20260831193057 | 82 | 220 | 1.0 | 3.0 | 0.00 | 0.01 | 0.00 | 72 | 1009.7 |
| 20260831191508 | 83 | 238 | 4.0 | 7.0 | 0.00 | 0.01 | 0.00 | 63 | 1010.0 |
| 20260831190050 | 84 | 194 | 0.0 | 7.0 | 0.00 | 0.01 | 0.00 | 63 | 1010.3 |
| 20260831184605 | 85 | 225 | 3.0 | 6.0 | 0.00 | 0.02 | 0.00 | 63 | 1010.3 |
| 20260831183136 | 85 | 214 | 4.0 | 8.0 | 0.00 | 0.02 | 0.00 | 64 | 1010.6 |
| 20260831181650 | 84 | 265 | 1.0 | 7.0 | 0.00 | 0.02 | 0.00 | 63 | 1010.7 |
| 20260831180020 | 85 | 211 | 2.0 | 8.0 | 0.00 | 0.02 | 0.00 | 64 | 1010.9 |
| 20260831174546 | 85 | 202 | 3.0 | 7.0 | 0.00 | 0.02 | 0.00 | 63 | 1011.0 |
| 20260831173106 | 85 | 234 | 2.0 | 7.0 | 0.00 | 0.02 | 0.00 | 64 | 1011.0 |
| 20260831171637 | 84 | 234 | 2.0 | 12.0 | 0.00 | 0.02 | 0.00 | 65 | 1011.1 |
| 20260831170010 | 85 | 246 | 4.0 | 11.0 | 0.00 | 0.02 | 0.00 | 64 | 1011.3 |
| 20260831164613 | 84 | 194 | 2.0 | 7.0 | 0.00 | 0.02 | 0.00 | 68 | 1011.3 |
| 20260831163136 | 83 | 243 | 2.0 | 7.0 | 0.00 | 0.02 | 0.00 | 70 | 1011.3 |
| 20260831161505 | 83 | 225 | 2.0 | 7.0 | 0.00 | 0.02 | 0.00 | 73 | 1011.2 |
| 20260831160015 | 83 | 176 | 3.0 | 8.0 | 0.00 | 0.02 | 0.00 | 71 | 1011.2 |
| 20260831154606 | 83 | 242 | 5.0 | 7.0 | 0.00 | 0.02 | 0.00 | 72 | 1011.2 |
| 20260831153022 | 82 | 211 | 5.0 | 7.0 | 0.00 | 0.02 | 0.00 | 73 | 1011.2 |
| 20260831151604 | 80 | 223 | 2.0 | 4.0 | 0.00 | 0.02 | 0.00 | 76 | 1011.3 |
| 20260831150022 | 79 | 180 | 1.0 | 5.0 | 0.00 | 0.02 | 0.00 | 77 | 1011.3 |
| 20260831144555 | 79 | 215 | 2.0 | 5.0 | 0.00 | 0.02 | 0.00 | 77 | 1011.2 |
| 20260831143026 | 78 | 176 | 1.0 | 4.0 | 0.00 | 0.02 | 0.00 | 80 | 1011.2 |
| 20260831141615 | 77 | 173 | 1.0 | 5.0 | 0.00 | 0.02 | 0.00 | 83 | 1011.2 |
| 20260831140149 | 77 | 193 | 2.0 | 5.0 | 0.00 | 0.02 | 0.00 | 82 | 1011.2 |
| 20260831134507 | 76 | 207 | 2.0 | 4.0 | 0.00 | 0.02 | 0.00 | 85 | 1011.2 |
| 20260831133050 | 75 | 199 | 2.0 | 4.0 | 0.00 | 0.02 | 0.00 | 85 | 1011.2 |